Weather History for Gulf Shores, AL

Change the Weather History Date:

Wednesday, May 22, 2013

  Actual Average (KPNS) Record (KPNS)
Temperature  
Mean Temperature 72 °F 76 °F  
Max Temperature 80 °F 85 °F 98 °F (1996)
Min Temperature 64 °F 68 °F 49 °F (1883)
Cooling Degree Days 7 11  
Month to date cooling degree days 187  
Year to date cooling degree days 335  
Growing Degree Days 22 (Base 50)    
Moisture  
Dew Point 66 °F    
Average Humidity 76    
Maximum Humidity 94    
Minimum Humidity 48    
Precipitation  
Precipitation 0.11 in 0.15 in 4.40 in (1916)
Month to date precipitation 2.90  
Year to date precipitation 22.72  
Sea Level Pressure  
Sea Level Pressure 29.96 in    
Wind  
Wind Speed 4 mph (South)    
Max Wind Speed 12 mph    
Max Gust Speed 23 mph    
Visibility 9 miles    
Events Fog , Rain    
T = Trace of Precipitation, MM = Missing Value Source: NWS Daily Summary

Daily Weather History Graph

Daily Weather History Graph

Search for Another Location

Airport:

Trip Planner

Search our weather history database for the weather conditions in past years. The results will help you decide how hot, cold, wet, or windy it might be!

Date:

Astronomy

May. 22, 2013 Rise Set
Actual Time 5:52 AM CDT 7:42 PM CDT
Civil Twilight 5:26 AM CDT 8:09 PM CDT
Nautical Twilight 4:53 AM CDT 8:41 PM CDT
Astronomical Twilight 4:19 AM CDT 9:15 PM CDT
Moon 5:13 PM CDT (5/22) 3:45 AM CDT (5/22)
Length of Visible Light 14h 42m
Length of Day
13h 49m
Waxing Gibbous, 91% of the Moon is Illuminated
May 22
Waxing Gibbous
May 24
Full
May 31
Last Quarter
Jun 8
New
Jun 16
First Quarter

Hourly Weather History & Observations

Time (CDT) Temp. Heat Index Dew Point Humidity Pressure Visibility Wind Dir Wind Speed Gust Speed Precip Events Conditions
12:15 AM 75.2 °F - 69.8 °F 83% 29.97 in 10.0 mi South 4.6 mph - N/A   Mostly Cloudy
12:35 AM 73.4 °F - 69.8 °F 88% 29.96 in 10.0 mi South 6.9 mph - N/A   Mostly Cloudy
12:55 AM 73.4 °F - 69.8 °F 88% 29.95 in 10.0 mi SSE 5.8 mph - N/A   Scattered Clouds
1:15 AM 73.4 °F - 69.8 °F 88% 29.94 in 10.0 mi South 5.8 mph - N/A   Scattered Clouds
1:35 AM 73.4 °F - 69.8 °F 88% 29.94 in 10.0 mi SSE 5.8 mph - N/A   Scattered Clouds
1:55 AM 73.4 °F - 69.8 °F 88% 29.93 in 10.0 mi South 4.6 mph - N/A   Scattered Clouds
2:15 AM 73.4 °F - 68.0 °F 83% 29.93 in 10.0 mi South 4.6 mph - N/A   Scattered Clouds
2:35 AM 73.4 °F - 68.0 °F 83% 29.93 in 10.0 mi South 3.5 mph - N/A   Clear
2:55 AM 73.4 °F - 68.0 °F 83% 29.93 in 10.0 mi SSE 3.5 mph - N/A   Clear
3:15 AM 71.6 °F - 68.0 °F 88% 29.92 in 10.0 mi South 3.5 mph - N/A   Clear
3:35 AM 71.6 °F - 68.0 °F 88% 29.92 in 10.0 mi SSW 3.5 mph - N/A   Clear
3:55 AM 69.8 °F - 66.2 °F 88% 29.92 in 7.0 mi Calm Calm - N/A   Clear
4:15 AM 69.8 °F - 68.0 °F 94% 29.93 in 7.0 mi Calm Calm - N/A   Clear
4:35 AM 69.8 °F - 66.2 °F 88% 29.93 in 5.0 mi Calm Calm - N/A   Clear
4:55 AM 69.8 °F - 66.2 °F 88% 29.94 in 7.0 mi North 3.5 mph - N/A   Clear
5:15 AM 66.2 °F - 62.6 °F 88% 29.95 in 0.8 mi Calm Calm - N/A   Mostly Cloudy
5:35 AM 68.0 °F - 64.4 °F 88% 29.95 in 4.0 mi Calm Calm - N/A   Scattered Clouds
5:55 AM 66.2 °F - 62.6 °F 88% 29.95 in 0.2 mi Calm Calm - N/A Fog Fog
6:15 AM 64.4 °F - 62.6 °F 94% 29.95 in 0.2 mi Calm Calm - N/A Fog Fog
6:35 AM 66.2 °F - 64.4 °F 94% 29.96 in 0.8 mi Calm Calm - N/A   Mostly Cloudy
6:55 AM 69.8 °F - 68.0 °F 94% 29.96 in 7.0 mi Calm Calm - N/A   Clear
7:15 AM 71.6 °F - 69.8 °F 94% 29.95 in 10.0 mi ENE 3.5 mph - N/A   Clear
7:35 AM 73.4 °F - 71.6 °F 94% 29.96 in 10.0 mi Calm Calm - N/A   Clear
7:55 AM 77.0 °F - 69.8 °F 78% 29.97 in 10.0 mi Calm Calm - N/A   Clear
8:15 AM 77.0 °F - 69.8 °F 78% 29.98 in 10.0 mi Calm Calm - N/A   Scattered Clouds
8:35 AM 78.8 °F - 68.0 °F 69% 29.99 in 10.0 mi West 3.5 mph - N/A   Scattered Clouds
8:55 AM 78.8 °F - 66.2 °F 65% 29.99 in 10.0 mi Calm Calm - N/A   Scattered Clouds
9:15 AM 78.8 °F - 66.2 °F 65% 29.99 in 10.0 mi WSW 3.5 mph - N/A   Mostly Cloudy
9:35 AM 80.6 °F 82.7 °F 66.2 °F 61% 30.01 in 10.0 mi Calm Calm - N/A   Mostly Cloudy
9:55 AM 78.8 °F - 68.0 °F 69% 30.02 in 10.0 mi SSW 4.6 mph - N/A   Overcast
10:15 AM 80.6 °F 83.2 °F 68.0 °F 65% 30.03 in 10.0 mi WSW 8.1 mph - N/A   Mostly Cloudy
10:35 AM 80.6 °F 83.2 °F 68.0 °F 65% 30.03 in 10.0 mi SW 5.8 mph - N/A   Mostly Cloudy
10:55 AM 80.6 °F 83.2 °F 68.0 °F 65% 30.03 in 10.0 mi North - - N/A   Mostly Cloudy
11:15 AM 80.6 °F 83.2 °F 68.0 °F 65% 30.02 in 10.0 mi West 9.2 mph - N/A   Scattered Clouds
11:35 AM 69.8 °F - 64.4 °F 83% 30.03 in 3.0 mi WNW 11.5 mph 23.0 mph 0.11 in Rain Rain
11:55 AM 69.8 °F - 66.2 °F 88% 30.01 in 10.0 mi NW 5.8 mph - 0.11 in   Scattered Clouds
12:15 PM 69.8 °F - 68.0 °F 94% 30.00 in 10.0 mi NNW 5.8 mph - N/A   Clear
12:35 PM 78.8 °F - 62.6 °F 57% 29.98 in 10.0 mi North 3.5 mph - N/A   Clear
12:55 PM 80.6 °F 81.1 °F 59.0 °F 48% 29.97 in 10.0 mi NNE 4.6 mph - N/A   Clear
1:15 PM 80.6 °F 81.5 °F 60.8 °F 51% 29.94 in 10.0 mi East 8.1 mph - N/A   Clear
1:35 PM 80.6 °F 81.8 °F 62.6 °F 54% 29.94 in 10.0 mi ESE 8.1 mph - N/A   Clear
1:55 PM 80.6 °F 82.3 °F 64.4 °F 58% 29.95 in 10.0 mi ESE 6.9 mph - N/A   Clear
2:15 PM 80.6 °F 81.8 °F 62.6 °F 54% 29.94 in 10.0 mi ESE 8.1 mph - N/A   Clear
2:35 PM 80.6 °F 82.3 °F 64.4 °F 58% 29.93 in 10.0 mi East 9.2 mph - N/A   Clear
2:55 PM 78.8 °F - 64.4 °F 61% 29.91 in 10.0 mi ESE 10.4 mph - N/A   Clear
3:15 PM 78.8 °F - 64.4 °F 61% 29.91 in 10.0 mi ESE 6.9 mph - N/A   Clear
3:35 PM 80.6 °F 82.3 °F 64.4 °F 58% 29.91 in 10.0 mi SE 9.2 mph - N/A   Clear
3:55 PM 78.8 °F - 64.4 °F 61% 29.91 in 10.0 mi East 6.9 mph - N/A   Clear
4:15 PM 78.8 °F - 66.2 °F 65% 29.91 in 10.0 mi SE 5.8 mph - N/A   Clear
4:35 PM 80.6 °F 83.2 °F 68.0 °F 65% 29.91 in 10.0 mi SE 8.1 mph - N/A   Clear
4:55 PM 78.8 °F - 68.0 °F 69% 29.91 in 10.0 mi SSE 5.8 mph - N/A   Clear
5:15 PM 78.8 °F - 68.0 °F 69% 29.92 in 10.0 mi SSE 8.1 mph - N/A   Clear
5:35 PM 78.8 °F - 68.0 °F 69% 29.92 in 10.0 mi South 4.6 mph - N/A   Clear
5:55 PM 78.8 °F - 68.0 °F 69% 29.92 in 10.0 mi SSE 6.9 mph - N/A   Clear
6:15 PM 78.8 °F - 68.0 °F 69% 29.93 in 10.0 mi South 4.6 mph - N/A   Clear
6:35 PM 78.8 °F - 68.0 °F 69% 29.94 in 10.0 mi SSW 6.9 mph - N/A   Clear
6:55 PM 78.8 °F - 68.0 °F 69% 29.94 in 10.0 mi SW 6.9 mph - N/A   Clear
7:15 PM 77.0 °F - 64.4 °F 65% 29.94 in 10.0 mi SW 5.8 mph - N/A   Clear
7:35 PM 77.0 °F - 66.2 °F 69% 29.94 in 10.0 mi Calm Calm - N/A   Clear
7:55 PM 75.2 °F - 66.2 °F 73% 29.95 in 10.0 mi SW 3.5 mph - N/A   Clear
8:15 PM 73.4 °F - 64.4 °F 73% 29.96 in 10.0 mi WSW 3.5 mph - N/A   Clear
8:35 PM 73.4 °F - 64.4 °F 73% 29.97 in 10.0 mi Calm Calm - N/A   Clear
8:55 PM 71.6 °F - 64.4 °F 78% 29.97 in 10.0 mi Calm Calm - N/A   Clear
9:15 PM 71.6 °F - 64.4 °F 78% 29.97 in 10.0 mi Calm Calm - N/A   Clear
9:35 PM 71.6 °F - 64.4 °F 78% 29.98 in 10.0 mi Calm Calm - N/A   Clear
9:55 PM 71.6 °F - 64.4 °F 78% 29.98 in 10.0 mi Calm Calm - N/A   Clear
10:15 PM 69.8 °F - 64.4 °F 83% 29.98 in 10.0 mi Calm Calm - N/A   Clear
10:35 PM 68.0 °F - 64.4 °F 88% 29.98 in 10.0 mi Calm Calm - N/A   Clear
10:55 PM 69.8 °F - 66.2 °F 88% 29.99 in 10.0 mi Calm Calm - N/A   Clear
11:15 PM 69.8 °F - 64.4 °F 83% 29.98 in 10.0 mi Calm Calm - N/A   Clear
11:35 PM 68.0 °F - 64.4 °F 88% 29.98 in 10.0 mi Calm Calm - N/A   Clear
11:55 PM 68.0 °F - 64.4 °F 88% 29.98 in 2.5 mi Calm Calm - N/A   Scattered Clouds